C/2016 Q2 ( PanSTARRS )

Japanese version
Home page
Updated on November 23, 2017

---------------------------------------------------------------------

* Profile

Discovery Date August 26, 2016
Magnitude 21.6 mag
Discoverer Pan-STARRS 1 telescope (Haleakala)

* Pictures

* Orbital Elements

Epoch 2021 May 26.0 TT = JDT 2459360.5
T 2021 May 11.77242 TT                                  MPCW
q   7.0814003            (2000.0)            P               Q
z  -0.0001272      Peri.   84.52995     -0.12668616     -0.80692952
 +/-0.0000097      Node   322.29578     -0.66687846     +0.49982421
e   1.0009006      Incl.  109.38861     +0.73431855     +0.31470701
From 65 observations 2016 Aug. 26-2017 Oct. 14, mean residual 0".5.

* Finding Charts

* Magnitudes Graph

        m1 = 4.0 + 5 log d + 10.0 log r

---------------------------------------------------------------------

The orbital elements are published on M.P.E.C. 2017-V13.
The charts are made with StellaNavigator Ver.10 (AstroArts).
The magnitudes graphs are made with Comet for Windows.

---------------------------------------------------------------------

Copyright(C) Seiichi Yoshida (comet@aerith.net). All rights reserved.